Location: *
(52.2090°N, 4.1550°W)
Time: 06:31:41
(UTC+00:00)

SL-19 R/B - Pass Details

Date: 19 July 2019
Orbit: 358 x 816 km, 99.4° (Epoch: 24 August)

Event Time Altitude Azimuth Distance (km) Brightness Sun altitude
Rises 22:50:36 0° 17° (NNE) 2,523 8.6 -14.3°
Reaches altitude 10° 22:52:46 10° 18° (NNE) 1,573 7.4 -14.4°
Maximum altitude 22:56:05 84° 108° (ESE) 417 3.6 -14.6°
Enters shadow 22:57:31 29° 193° (SSW) 765 4.6 -14.7°
